Preview of NWS' New Version of Forecast
This preview is not operational and should not be used for support decisions.

Regional Weather Roundup (RWR)

Issued by National Weather Service (NWS)

                            
000
ASUS42 KTBW 200117
RWRFL 
FLORIDA REGIONAL WEATHER ROUNDUP
NATIONAL WEATHER SERVICE TAMPA BAY RUSKIN FL
800 PM EST TUE FEB 19 2019

NOTE: "FAIR" INDICATES FEW OR NO CLOUDS BELOW 12,000 FEET WITH NO
SIGNIFICANT WEATHER AND/OR OBSTRUCTIONS TO VISIBILITY.

FLZ001>010-012>015-112-114-115-200200-
PANHANDLE FLORIDA
  
CITY           SKY/WX    TMP DP  RH WIND       PRES   REMARKS
PENSACOLA      CLOUDY    65  62  90 SE14G23   30.05S                  
PENSACOLA NAS  DRIZZLE   64  64 100 E12       30.04S FOG              
MILTON NAS     CLOUDY    63  57  81 E6        30.05                   
CRESTVIEW      CLOUDY    66  53  63 E5        30.09R                  
DUKE FIELD     CLOUDY    67  57  68 E5        30.07R                  
VALPARAISO     CLOUDY    66  62  88 SE9       30.07R                  
MARY ESTHER    CLOUDY    65  62  87 SE10      30.06R                  
PANAMA CITY    CLOUDY    70  59  68 NE8       30.09R                  
TYNDALL AFB    CLOUDY    70  64  80 E6        30.09R                  
APALACHICOLA   CLOUDY    68  62  81 E12G18    30.11R                  

STATION/POSITION SKY/WX   TEMP    WIND        PRES    WAVE   SWELL
                          AIR SEA DIR/SP/G            HT/PER HT/PER
                          (F)     (DEG/KT/KT) (MB)    (FT/S) (FT/S)
30.1N   87.6W              67     120/ 16/ 19 1016.8F   6/ 7
29.2N   88.2W                     120/ 14/ 17 1015.4S   5/ 6   3/ 8
PANAMA CITY BEAC           72 62  100/  8/ 12 1019.2R
TOWER C                    67     120/ 14/ 14 1019.9R

$$
FLZ011-016>038-118-127-128-134-139-239-200200-
NORTH FLORIDA
  
CITY           SKY/WX    TMP DP  RH WIND       PRES   REMARKS
MARIANNA       CLOUDY    61  57  87 E15G24    30.15R                  
TALLAHASSEE    CLOUDY    63  58  83 E15       30.17R                  
PERRY          CLOUDY    63  58  84 E10G21    30.20R                  
LIVE OAK       CLOUDY    59  55  88 NE10G16   30.22R                  
CROSS CITY     CLOUDY    65  61  86 NE8       30.18R                  
LAKE CITY      CLOUDY    55  54  94 NE9G17    30.21S                  
GAINESVILLE    CLOUDY    65  59  81 NE9       30.21R                  
WILLISTON        N/A    N/A N/A N/A MISG        N/A                   
PALATKA        LGT RAIN N/A N/A N/A NE3       30.20R                  
MAYPORT NAS    CLOUDY    59  58  96 N21G29    30.22R                  
JACKSONVILLE   CLOUDY    58  56  93 NE12G25   30.22S                  
JAX NAS        CLOUDY    61  60  97 N14       30.22S                  
JAX CECIL      CLOUDY    59  57  94 NE12      30.22R                  
FERNANDINA BEA CLOUDY    57  56  97 N18G26    30.24R                  
ST AUGUSTINE   LGT RAIN  62  61  96 N12       30.21R FOG              
PALM COAST     CLOUDY    67  65  93 N7        30.18R FOG              

STATION/POSITION SKY/WX   TEMP    WIND        PRES    WAVE   SWELL
                          AIR SEA DIR/SP/G            HT/PER HT/PER
                          (F)     (DEG/KT/KT) (MB)    (FT/S) (FT/S)
SHELL POINT      NOT AVBL
KEATON BEACH     NOT AVBL
CEDAR KEY                  70      60/ 14/ 15 1020.9R
FERNANDINA                 58 60   10/ 16/ 21 1024.7R
30.7N   81.3W                 59                N/A     7/ 8
MAYPORT                    59 60   10/ 18/ 23 1023.2R
31.4N   80.9W              58 58   40/ 23/ 27 1024.2F   8/ 8   2/14
ST AUGUSTINE               60 61  350/ 15/ 17 1022.8R

$$
FLZ040-043>046-052-053-057-058-063-144-200200-
INTERIOR CENTRAL FLORIDA
  
CITY           SKY/WX    TMP DP  RH WIND       PRES   REMARKS
OCALA          CLOUDY    67  64  90 NE10G16   30.16R                  
LEESBURG       MOCLDY    73  70  90 NE7       30.16R                  
SANFORD        FAIR      74  69  85 E12       30.16R                  
ORLANDO EXEC   FAIR      75  67  76 E12       30.16R                  
ORLANDO INTL   FAIR      75  66  73 E12       30.16R                  
KISSIMMEE      FAIR      76  67  73 SE10      30.16R                  
WINTER HAVEN   FAIR      80  66  62 E13       30.15R                  
LAKELAND       CLEAR     79  64  61 SE12      30.13R                  
BARTOW         FAIR      77  66  69 SE7       30.13R                  
SEBRING        FAIR      76  66  71 SE10      30.15R                  
OKEECHOBEE     FAIR      72  68  88 CALM      30.15R                  

$$
FLZ041-047-054-059-064-141-147-200200-
EAST CENTRAL FLORIDA
  
CITY           SKY/WX    TMP DP  RH WIND       PRES   REMARKS
DAYTONA BEACH  CLOUDY    72  72 100 SE7       30.18R FOG              
DELAND         CLOUDY    73  70  88 E10       30.16R                  
NEW SMYRNA BEA CLOUDY    70  68  94 SE9       30.19R FOG              
JFK SPACE CTR  FAIR      73 N/A N/A SE9       30.18R                  
TITUSVILLE     CLEAR     75  70  83 SE6       30.17R                  
CAPE CANAVERAL FAIR      72  69  90 SE10      30.16R                  
PATRICK AFB    FAIR      71  71 100 SE13      30.16R                  
MELBOURNE      FAIR      75  68  78 SE10      30.16R                  
VERO BEACH     FAIR      74  69  85 SE12      30.16R                  
FT PIERCE      FAIR      74  68  81 E10       30.16R                  
STUART         LGT RAIN  75  72  88 E9        30.16R                  

STATION/POSITION SKY/WX   TEMP    WIND        PRES    WAVE   SWELL
                          AIR SEA DIR/SP/G            HT/PER HT/PER
                          (F)     (DEG/KT/KT) (MB)    (FT/S) (FT/S)
28.5N   80.2W              73     120/ 12/ 14 1022.2R   4/ 7   3/ 7
28.9N   78.5W              76 77  130/ 14/ 16 1023.4R   6/ 8   5/ 8
TRIDENT PIER               70 69  100/  6/  9 1022.6R
28.4N   80.5W                 64                N/A     2/ 9

$$
FLZ050-056-061-142-242-148-248-149-249-151-251-155-255-
160-260-200200-
WEST CENTRAL FLORIDA
  
CITY           SKY/WX    TMP DP  RH WIND       PRES   REMARKS
CRYSTAL RIVER  CLOUDY    72  66  83 NE8       30.15R                  
INVERNESS      FAIR      73  73 100 NE8       30.14R                  
BROOKSVILLE    MOCLDY    77  67  71 NW3       30.13R                  
CLEARWATER AIR CLOUDY    73  63  68 CALM      30.12R                  
ST PETE CLEARW MOCLDY    77  64  64 SW6       30.12R                  
TAMPA INTL     MOCLDY    77  67  71 W7        30.12R                  
TAMPA EXEC     FAIR      79  64  61 SE3       30.13R                  
PLANT CITY     FAIR      81  64  57 SE6       30.14R                  
MACDILL AFB    FAIR      75  66  73 W3        30.12R                  
PETER O KNIGHT CLOUDY    77  70  78 S6        30.13R                  
ST PETERSBURG  FAIR      77  66  68 CALM      30.10R                  
SARASOTA       FAIR      75  67  76 S3        30.10R                  
VENICE         MOCLDY    75  72  88 SE3       30.12R                  

STATION/POSITION SKY/WX   TEMP    WIND        PRES    WAVE   SWELL
                          AIR SEA DIR/SP/G            HT/PER HT/PER
                          (F)     (DEG/KT/KT) (MB)    (FT/S) (FT/S)
27.3N   84.2W                 71                N/A     4/ 8
CLEARWATER BEACH           74 71  210/  2/  4 1020.0R
MIDDLE TAMPA BAY           72     240/  2/  3 1019.8R
VENICE                     74 69  140/  4/  5   N/A

$$
FLZ066-069-070-075>078-162-262-165-265-200200-
SOUTHWEST FLORIDA AND KEYS
  
CITY           SKY/WX    TMP DP  RH WIND       PRES   REMARKS
PUNTA GORDA    FAIR      77  63  61 E12       30.13R                  
FT MYERS       FAIR      77  63  61 SE12      30.11R                  
SOUTHWEST INTL FAIR      76  64  66 SE10      30.11R                  
NAPLES         FAIR      77  63  61 E9        30.11R                  
MARCO ISLAND   FAIR     N/A N/A N/A E6        30.12R                  
IMMOKALEE      FAIR      73  64  73 E7        30.11R                  
MARATHON       FAIR      80  71  74 E12G17    30.10R                  
KEY WEST NAS   FAIR      79  71  76 E20       30.08S                  
KEY WEST INTL  FAIR      79  72  79 E17       30.09R                  

STATION/POSITION SKY/WX   TEMP    WIND        PRES    WAVE   SWELL
                          AIR SEA DIR/SP/G            HT/PER HT/PER
                          (F)     (DEG/KT/KT) (MB)    (FT/S) (FT/S)
NAPLES                     78 74  100/  4/  7 1019.5R
26.0N   85.6W              78 80  130/ 17/ 23 1016.7R   6/ 6
DRY TORTUGAS               77     110/ 14/ 16 1018.2R
SAND KEY                   77                 1018.3F
SOMBRERO KEY               78                 1018.4R
LONG KEY                   78 79  110/ 14/ 17 1019.2R
MOLASSES REEF              77 78  100/ 12/ 13 1019.8S

$$
FLZ067-068-071>074-168-172>174-200200-
SOUTHEAST FLORIDA 
  
CITY           SKY/WX    TMP DP  RH WIND       PRES   REMARKS
W PALM BEACH   FAIR      77  66  68 SE15      30.15R                  
BOCA RATON     PTCLDY    77  68  73 SE10      30.14S                  
FT LAUDER-EXEC MOCLDY    77  71  82 E13       30.13S                  
FT LAUDERDALE  FAIR      77  72  84 E14       30.13R                  
POMPANO BEACH  FAIR      77  69  76 SE14      30.14R                  
PEMBROKE PINES MOCLDY    77  69  76 E12       30.14S                  
OPA LOCKA      MOCLDY    77  68  73 E13       30.14R                  
MIAMI          FAIR      77  71  82 E15       30.13S                  
WEST KENDALL   FAIR      76  70  82 E12       30.12S                  
HOMESTEAD      MOCLDY    76  71  83 E10       30.12R                  

STATION/POSITION SKY/WX   TEMP    WIND        PRES    WAVE   SWELL
                          AIR SEA DIR/SP/G            HT/PER HT/PER
                          (F)     (DEG/KT/KT) (MB)    (FT/S) (FT/S)
PORT EVERGLADES            77     100/  4/ 12 1020.4R
VIRGINIA KEY               77 79   80/ 12/ 16 1019.6S
LAKE WORTH                 77 78  140/ 16/ 19 1021.8R
FOWEY ROCKS                77 78   90/ 19/ 20 1020.8R
SETTLEMENT POINT           76     120/ 13/ 16 1021.6R

$$